| time (UTC) | temp F | wind direction | speed MPH | gust MPH | rain 1hr in | rain 24hr in | rain mn in | humidity % | barometer mb |
| 20260505124514 | 52 | 149 | 14.0 | 20.0 | 0.00 | 0.04 | 0.00 | 79 | 1008.6 |
| 20260505123009 | 52 | 146 | 13.0 | 21.0 | 0.00 | 0.04 | 0.00 | 80 | 1008.7 |
| 20260505121508 | 51 | 150 | 11.0 | 20.0 | 0.00 | 0.04 | 0.00 | 80 | 1008.9 |
| 20260505120010 | 50 | 156 | 12.0 | 20.0 | 0.00 | 0.04 | 0.00 | 82 | 1008.9 |
| 20260505114504 | 50 | 132 | 11.0 | 19.0 | 0.00 | 0.04 | 0.00 | 81 | 1008.9 |
| 20260505113002 | 49 | 136 | 11.0 | 18.0 | 0.00 | 0.04 | 0.00 | 82 | 1008.7 |
| 20260505111603 | 49 | 150 | 11.0 | 16.0 | 0.00 | 0.04 | 0.00 | 83 | 1008.6 |
| 20260505101555 | 47 | 142 | 12.0 | 19.0 | 0.00 | 0.04 | 0.00 | 86 | 1008.6 |
| 20260505100050 | 46 | 118 | 10.0 | 16.0 | 0.00 | 0.04 | 0.00 | 86 | 1008.4 |
| 20260505094558 | 46 | 140 | 11.0 | 16.0 | 0.00 | 0.04 | 0.00 | 86 | 1008.4 |
| 20260505093053 | 46 | 148 | 10.0 | 16.0 | 0.00 | 0.04 | 0.00 | 86 | 1008.2 |
| 20260505091547 | 46 | 139 | 11.0 | 17.0 | 0.00 | 0.04 | 0.00 | 85 | 1008.2 |
| 20260505090053 | 46 | 157 | 11.0 | 18.0 | 0.00 | 0.04 | 0.00 | 85 | 1008.2 |
| 20260505084545 | 46 | 130 | 10.0 | 15.0 | 0.00 | 0.04 | 0.00 | 86 | 1008.2 |
| 20260505083100 | 46 | 129 | 9.0 | 15.0 | 0.00 | 0.04 | 0.00 | 86 | 1008.2 |
| 20260505081541 | 46 | 136 | 9.0 | 13.0 | 0.00 | 0.04 | 0.00 | 86 | 1008.2 |
| 20260505080042 | 46 | 125 | 9.0 | 13.0 | 0.00 | 0.04 | 0.00 | 85 | 1008.1 |
| 20260505074537 | 46 | 148 | 8.0 | 15.0 | 0.00 | 0.04 | 0.00 | 85 | 1008.2 |
| 20260505073037 | 46 | 150 | 9.0 | 14.0 | 0.00 | 0.04 | 0.00 | 84 | 1008.1 |
| 20260505071535 | 46 | 149 | 8.0 | 14.0 | 0.00 | 0.04 | 0.00 | 84 | 1008.1 |
| 20260505070041 | 46 | 117 | 11.0 | 16.0 | 0.00 | 0.04 | 0.00 | 84 | 1008.2 |
| 20260505064533 | 47 | 130 | 9.0 | 14.0 | 0.00 | 0.04 | 0.00 | 83 | 1008.1 |
| 20260505063030 | 47 | 124 | 8.0 | 13.0 | 0.00 | 0.04 | 0.00 | 83 | 1008.0 |
| 20260505061538 | 47 | 134 | 9.0 | 14.0 | 0.00 | 0.04 | 0.00 | 83 | 1008.0 |
| 20260505060027 | 47 | 136 | 8.0 | 13.0 | 0.00 | 0.04 | 0.00 | 84 | 1008.0 |
| 20260505054540 | 47 | 129 | 6.0 | 13.0 | 0.00 | 0.04 | 0.00 | 84 | 1007.9 |
| 20260505053026 | 47 | 138 | 8.0 | 12.0 | 0.00 | 0.04 | 0.00 | 83 | 1007.9 |
| 20260505051523 | 47 | 121 | 9.0 | 15.0 | 0.00 | 0.04 | 0.00 | 83 | 1007.7 |
| 20260505041517 | 47 | 126 | 9.0 | 13.0 | 0.00 | 0.04 | 0.04 | 83 | 1007.6 |
| 20260505040034 | 47 | 138 | 7.0 | 13.0 | 0.00 | 0.04 | 0.04 | 83 | 1007.6 |
| 20260505034617 | 47 | 141 | 7.0 | 12.0 | 0.00 | 0.04 | 0.04 | 83 | 1007.6 |
| 20260505033016 | 47 | 153 | 6.0 | 12.0 | 0.00 | 0.04 | 0.04 | 83 | 1007.5 |
| 20260505031514 | 47 | 152 | 8.0 | 13.0 | 0.00 | 0.04 | 0.04 | 82 | 1007.5 |
| 20260505030016 | 47 | 150 | 8.0 | 13.0 | 0.00 | 0.04 | 0.04 | 81 | 1007.4 |
| 20260505024512 | 48 | 147 | 9.0 | 13.0 | 0.00 | 0.04 | 0.04 | 80 | 1007.6 |
| 20260505023013 | 47 | 143 | 6.0 | 10.0 | 0.00 | 0.04 | 0.04 | 81 | 1007.6 |
| 20260505021511 | 46 | 120 | 7.0 | 10.0 | 0.00 | 0.04 | 0.04 | 82 | 1007.4 |
| 20260505020013 | 46 | 129 | 9.0 | 12.0 | 0.00 | 0.04 | 0.04 | 82 | 1007.4 |
| 20260505014510 | 46 | 118 | 6.0 | 10.0 | 0.00 | 0.04 | 0.04 | 81 | 1007.4 |
| 20260505013009 | 47 | 129 | 8.0 | 13.0 | 0.00 | 0.04 | 0.04 | 81 | 1007.3 |
| 20260505011509 | 46 | 126 | 8.0 | 13.0 | 0.00 | 0.04 | 0.04 | 81 | 1007.2 |
| 20260505010009 | 46 | 123 | 8.0 | 13.0 | 0.00 | 0.04 | 0.04 | 81 | 1007.1 |
| 20260505004514 | 46 | 124 | 7.0 | 11.0 | 0.00 | 0.04 | 0.04 | 82 | 1006.9 |
| 20260505003007 | 46 | 123 | 6.0 | 9.0 | 0.00 | 0.04 | 0.04 | 81 | 1006.7 |
| 20260505001507 | 47 | 134 | 5.0 | 9.0 | 0.00 | 0.04 | 0.04 | 79 | 1006.6 |
| 20260505000007 | 49 | 136 | 6.0 | 10.0 | 0.00 | 0.04 | 0.04 | 76 | 1006.5 |
| 20260504234507 | 50 | 130 | 8.0 | 12.0 | 0.00 | 0.04 | 0.04 | 75 | 1006.2 |
| 20260504233005 | 50 | 128 | 6.0 | 10.0 | 0.00 | 0.04 | 0.04 | 75 | 1005.9 |
| 20260504231505 | 51 | 120 | 5.0 | 8.0 | 0.00 | 0.04 | 0.04 | 74 | 1005.8 |
| 20260504230005 | 51 | 128 | 5.0 | 9.0 | 0.00 | 0.04 | 0.04 | 74 | 1005.7 |
| 20260504224503 | 52 | 122 | 3.0 | 7.0 | 0.00 | 0.04 | 0.04 | 73 | 1005.4 |
| 20260504223004 | 54 | 129 | 5.0 | 7.0 | 0.00 | 0.04 | 0.04 | 70 | 1005.3 |
| 20260504221502 | 54 | 120 | 1.0 | 7.0 | 0.00 | 0.04 | 0.04 | 68 | 1005.4 |
| 20260504220004 | 55 | 134 | 3.0 | 7.0 | 0.00 | 0.04 | 0.04 | 66 | 1005.5 |
| 20260504214501 | 56 | 135 | 4.0 | 8.0 | 0.00 | 0.04 | 0.04 | 63 | 1005.2 |
| 20260504213002 | 57 | 144 | 6.0 | 10.0 | 0.00 | 0.04 | 0.04 | 64 | 1005.2 |
| 20260504211501 | 57 | 140 | 5.0 | 9.0 | 0.00 | 0.04 | 0.04 | 62 | 1005.2 |
| 20260504210106 | 57 | 131 | 7.0 | 12.0 | 0.00 | 0.04 | 0.04 | 61 | 1005.1 |
| 20260504204605 | 58 | 171 | 6.0 | 13.0 | 0.00 | 0.04 | 0.04 | 62 | 1005.0 |
| 20260504203101 | 58 | 113 | 6.0 | 13.0 | 0.00 | 0.04 | 0.04 | 66 | 1005.0 |
| 20260504201559 | 58 | 130 | 7.0 | 13.0 | 0.00 | 0.04 | 0.04 | 68 | 1004.8 |
| 20260504200058 | 57 | 120 | 8.0 | 13.0 | 0.00 | 0.05 | 0.04 | 70 | 1004.8 |
| 20260504194600 | 58 | 170 | 4.0 | 8.0 | 0.00 | 0.05 | 0.04 | 72 | 1004.9 |
| 20260504193109 | 57 | 167 | 5.0 | 8.0 | 0.00 | 0.05 | 0.04 | 79 | 1004.9 |
| 20260504191554 | 55 | 178 | 3.0 | 8.0 | 0.01 | 0.05 | 0.04 | 79 | 1005.1 |
| 20260504184551 | 51 | 182 | 3.0 | 5.0 | 0.04 | 0.08 | 0.04 | 88 | 1005.6 |
| 20260504183058 | 48 | 188 | 3.0 | 7.0 | 0.04 | 0.08 | 0.04 | 88 | 1006.0 |
| 20260504181548 | 47 | 193 | 5.0 | 13.0 | 0.03 | 0.07 | 0.03 | 86 | 1006.1 |
| 20260504180122 | 48 | 165 | 5.0 | 13.0 | 0.01 | 0.10 | 0.01 | 80 | 1005.8 |
| 20260504174546 | 51 | 182 | 7.0 | 12.0 | 0.00 | 0.09 | 0.00 | 69 | 1005.5 |
| 20260504173046 | 51 | 157 | 9.0 | 14.0 | 0.00 | 0.09 | 0.00 | 68 | 1005.3 |
| 20260504171548 | 50 | 140 | 11.0 | 19.0 | 0.00 | 0.09 | 0.00 | 69 | 1005.3 |